FW1382 Weather Reports


time (UTC)temp
F
wind
direction
speed
knots
gust
knots
rain 1hr
in
rain 24hr
in
rain mn
in
humidity
%
barometer
mb
20260906230120 95 134 3.5 9.6 0.00 0.00 0.00 49 1009.6
20260906224507 95 146 5.2 9.6 0.00 0.00 0.00 48 1009.5
20260906223007 96 113 7.0 10.4 0.00 0.00 0.00 47 1009.5
20260906221505 97 94 3.5 8.7 0.00 0.00 0.00 46 1009.6
20260906220004 98 98 5.2 10.4 0.00 0.00 0.00 45 1009.6
20260906214508 98 100 4.3 8.7 0.00 0.00 0.00 43 1009.8
20260906213002 98 129 1.7 9.6 0.00 0.00 0.00 44 1009.8
20260906211501 100 87 5.2 9.6 0.00 0.00 0.00 43 1009.8
20260906210059 98 132 4.3 8.7 0.00 0.00 0.00 44 1010.0
20260906204607 99 112 6.1 11.3 0.00 0.00 0.00 45 1010.2
20260906203055 98 114 7.8 11.3 0.00 0.00 0.00 45 1010.4
20260906201603 98 148 6.1 13.0 0.00 0.00 0.00 47 1010.5
20260906200051 96 108 4.3 8.7 0.00 0.00 0.00 46 1010.8
20260906194549 98 65 4.3 7.8 0.00 0.00 0.00 45 1010.9
20260906193045 99 334 2.6 16.5 0.00 0.00 0.00 45 1011.3
20260906191542 97 13 3.5 11.3 0.00 0.00 0.00 48 1011.3
20260906190038 96 98 2.6 10.4 0.00 0.00 0.00 50 1011.4
20260906184537 96 98 4.3 10.4 0.00 0.00 0.00 50 1011.8
20260906183033 96 46 4.3 11.3 0.00 0.00 0.00 50 1011.9
20260906181530 96 119 1.7 7.8 0.00 0.00 0.00 49 1012.0
20260906180025 97 55 4.3 8.7 0.00 0.00 0.00 49 1012.4
20260906174521 95 141 2.6 13.0 0.00 0.00 0.00 49 1012.5
20260906173018 95 127 3.5 10.4 0.00 0.00 0.00 51 1012.7
20260906171515 95 19 5.2 9.6 0.00 0.00 0.00 53 1012.9
20260906170014 94 78 3.5 7.8 0.00 0.00 0.00 54 1013.3
20260906164510 93 111 4.3 7.8 0.00 0.00 0.00 55 1013.4
20260906163005 93 80 3.5 8.7 0.00 0.00 0.00 57 1013.5
20260906161606 92 39 1.7 5.2 0.00 0.00 0.00 57 1013.3
20260906160056 91 19 2.6 7.8 0.00 0.00 0.00 59 1013.4
20260906154552 91 355 0.9 5.2 0.00 0.00 0.00 61 1013.4
20260906153048 90 74 1.7 4.3 0.00 0.00 0.00 63 1013.3
20260906151551 88 29 1.7 4.3 0.00 0.00 0.00 65 1013.2
20260906150039 87 150 0.9 4.3 0.00 0.00 0.00 68 1013.1
20260906144537 85 53 0.9 4.3 0.00 0.00 0.00 71 1013.1
20260906143034 84 141 1.7 3.5 0.00 0.00 0.00 74 1013.3
20260906141533 82 148 1.7 4.3 0.00 0.00 0.00 77 1013.4
20260906140021 81 155 3.5 7.0 0.00 0.00 0.00 78 1013.4
20260906134525 80 157 3.5 7.0 0.00 0.00 0.00 81 1013.4
20260906133015 78 130 1.7 4.3 0.00 0.00 0.00 85 1013.3
20260906131508 76 167 0.0 1.7 0.00 0.00 0.00 86 1013.2
20260906130003 75 168 0.0 0.0 0.00 0.00 0.00 86 1013.1
20260906124601 74 168 0.0 0.0 0.00 0.00 0.00 85 1012.9
20260906123135 74 146 0.0 0.0 0.00 0.00 0.00 84 1012.8
20260906121555 74 146 0.0 0.0 0.00 0.00 0.00 84 1012.7
20260906120052 75 146 0.0 0.0 0.00 0.00 0.00 83 1012.5
20260906114553 75 146 0.0 1.7 0.00 0.00 0.00 84 1012.3
20260906113050 75 146 0.9 3.5 0.00 0.00 0.00 84 1012.3
20260906111549 75 146 0.0 0.0 0.00 0.00 0.00 83 1012.1
20260906110047 75 146 0.0 0.0 0.00 0.00 0.00 83 1012.0
20260906104546 75 146 0.0 0.0 0.00 0.00 0.00 83 1011.9
20260906103048 75 146 0.9 2.6 0.00 0.00 0.00 82 1011.7
20260906101544 76 146 0.0 0.0 0.00 0.00 0.00 82 1011.7
20260906100042 76 146 0.9 3.5 0.00 0.00 0.00 82 1011.6
20260906094541 76 146 0.9 2.6 0.00 0.00 0.00 82 1011.6
20260906093042 77 146 0.0 2.6 0.00 0.00 0.00 81 1011.3
20260906091548 77 154 0.0 1.7 0.00 0.00 0.00 79 1011.2
20260906090034 78 154 0.0 2.6 0.00 0.00 0.00 78 1011.3
20260906084532 79 154 0.0 1.7 0.00 0.00 0.00 77 1011.3
20260906083035 79 154 0.0 0.0 0.00 0.00 0.00 76 1011.1
20260906081529 79 154 0.0 1.7 0.00 0.00 0.00 76 1011.2
20260906080031 80 154 0.9 2.6 0.00 0.00 0.00 76 1011.4
20260906074525 80 147 1.7 4.3 0.00 0.00 0.00 75 1011.4
20260906073022 81 174 0.9 3.5 0.00 0.00 0.00 74 1011.5
20260906071519 81 173 0.9 2.6 0.00 0.00 0.00 74 1011.7
20260906070016 82 177 0.0 1.7 0.00 0.00 0.00 72 1011.8
20260906064515 82 177 0.9 2.6 0.00 0.00 0.00 72 1011.9
20260906063013 83 178 0.0 2.6 0.00 0.00 0.00 71 1012.1
20260906061512 83 177 0.0 0.0 0.00 0.00 0.00 71 1012.1
20260906060010 83 177 2.6 7.0 0.00 0.00 0.00 70 1012.2
20260906054509 83 186 4.3 11.3 0.00 0.00 0.00 70 1012.0
20260906053006 83 171 5.2 7.8 0.00 0.00 0.00 70 1012.0
20260906051504 84 175 6.1 10.4 0.00 0.00 0.00 69 1011.8
20260906050001 84 167 5.2 7.8 0.00 0.00 0.00 68 1011.7
20260906044501 84 166 6.1 10.4 0.00 0.00 0.00 68 1011.6
20260906043103 85 150 7.0 9.6 0.00 0.00 0.00 67 1011.6
20260906041602 85 171 6.1 7.8 0.00 0.00 0.00 67 1011.6
20260906040059 85 155 5.2 8.7 0.00 0.00 0.00 66 1011.7
20260906034601 86 161 4.3 8.7 0.00 0.00 0.00 65 1011.8
20260906033109 87 157 4.3 8.7 0.00 0.00 0.00 64 1011.9
20260906031558 87 122 3.5 8.7 0.00 0.00 0.00 63 1011.9
20260906030057 88 128 4.3 7.8 0.00 0.00 0.00 62 1011.5
20260906024557 88 165 4.3 10.4 0.00 0.00 0.00 61 1011.2
20260906023056 88 152 7.0 13.0 0.00 0.00 0.00 60 1010.8
20260906021558 89 157 4.3 7.0 0.00 0.00 0.00 57 1010.7
20260906020105 90 139 3.5 7.8 0.00 0.00 0.00 57 1010.7
20260906014555 90 134 3.5 9.6 0.00 0.00 0.00 56 1010.5
20260906013103 91 159 5.2 10.4 0.00 0.00 0.00 56 1010.2
20260906011602 91 135 6.1 12.2 0.00 0.00 0.00 55 1010.1
20260906010052 92 142 5.2 11.3 0.00 0.00 0.00 54 1009.9
20260906004601 93 153 6.1 11.3 0.00 0.00 0.00 52 1009.7
20260906003151 95 105 9.6 13.9 0.00 0.00 0.00 49 1009.8
20260906001552 96 125 2.6 7.8 0.00 0.00 0.00 43 1009.6
20260906000056 97 81 4.3 7.0 0.00 0.00 0.00 43 1009.5
20260905234550 97 126 4.3 9.6 0.00 0.00 0.00 42 1009.5
20260905233049 98 115 7.0 9.6 0.00 0.00 0.00 41 1009.5
20260905231549 99 120 2.6 7.8 0.00 0.00 0.00 40 1009.5